WetterOnline ( https://www.wetteronline.ch )

Wetter aktuell Altenstadt

Aktuelles Wetter: Weiden (439m)

6-stündlich | Neueste Meldungen
Ortszeit Temperatur Wetter
Di, 07.07. 2:00 9.8° C wolkenlos
Mo, 06.07. 20:00 17.7° C leicht bewölkt
Mo, 06.07. 14:00 20.0° C leicht bewölkt
Mo, 06.07. 8:00 16.0° C Sprühregen
Mo, 06.07. 2:00 19.7° C bedeckt
So, 05.07. 20:00 24.4° C fast wolkenlos
So, 05.07. 14:00 22.6° C bedeckt
So, 05.07. 8:00 18.9° C bedeckt
Ortszeit Temperatur Wetter
Di, 07.07. 5:00 8.3° C bewölkt
Di, 07.07. 4:50 8.3° C bewölkt
Di, 07.07. 4:40 8.5° C bedeckt
Di, 07.07. 4:30 8.3° C bedeckt
Di, 07.07. 4:20 8.3° C bedeckt
Di, 07.07. 4:10 7.6° C bewölkt
Di, 07.07. 4:00 8.3° C leicht bewölkt
Di, 07.07. 3:30 8.5° C wolkenlos
Di, 07.07. 3:00 8.8° C wolkenlos
Di, 07.07. 2:30 10.0° C wolkenlos
Di, 07.07. 2:00 9.8° C wolkenlos
Ortszeit Relative Feuchte Sichtweite
Di, 07.07. 2:00 77% 55 km
Mo, 06.07. 20:00 41% 55 km
Mo, 06.07. 14:00 40% 45 km
Mo, 06.07. 8:00 94% 8 km
Mo, 06.07. 2:00 72% >70 km
So, 05.07. 20:00 56% 50 km
So, 05.07. 14:00 60% >70 km
So, 05.07. 8:00 64% 60 km
Ortszeit Relative Feuchte Sichtweite
Di, 07.07. 5:00 87% 55 km
Di, 07.07. 4:50 87% -
Di, 07.07. 4:40 88% -
Di, 07.07. 4:30 88% 50 km
Di, 07.07. 4:20 88% -
Di, 07.07. 4:10 89% -
Di, 07.07. 4:00 85% 55 km
Di, 07.07. 3:30 84% 60 km
Di, 07.07. 3:00 82% 60 km
Di, 07.07. 2:30 76% 60 km
Di, 07.07. 2:00 77% 55 km
Ortszeit Niederschlagsmenge Niederschlagsart
Di, 07.07. 2:00 0.0 l/m2 in 6 Std. -
Mo, 06.07. 20:00 0.8 l/m2 in 12 Std. -
Mo, 06.07. 14:00 0.8 l/m2 in 6 Std. Regen
Mo, 06.07. 8:00 0.5 l/m2 in 12 Std. Regen
Mo, 06.07. 2:00 0.0 l/m2 in 6 Std. -
So, 05.07. 20:00 0.0 l/m2 in 12 Std. -
So, 05.07. 14:00 0.0 l/m2 in 6 Std. -
So, 05.07. 8:00 0.0 l/m2 in 12 Std. -
Ortszeit Niederschlagsmenge Niederschlagsart
Di, 07.07. 5:00 0.0 l/m2 in 1 Std. -
Di, 07.07. 4:50 keine Meldung -
Di, 07.07. 4:40 keine Meldung -
Di, 07.07. 4:30 0.0 l/m2 in 1 Std. -
Di, 07.07. 4:20 keine Meldung -
Di, 07.07. 4:10 keine Meldung -
Di, 07.07. 4:00 0.0 l/m2 in 1 Std. -
Di, 07.07. 3:30 0.0 l/m2 in 1 Std. -
Di, 07.07. 3:00 0.0 l/m2 in 1 Std. -
Di, 07.07. 2:30 0.0 l/m2 in 1 Std. -
Di, 07.07. 2:00 0.0 l/m2 in 1 Std. -
Ortszeit Stärke Spitze Richtung
km/h Bft. km/h Grad Sektor
Di, 07.07. 2:00 4 1 50 260° W
Mo, 06.07. 20:00 20 4 46 290° W
Mo, 06.07. 14:00 18 3 40 270° W
Mo, 06.07. 8:00 7 2 36 220° SW
Mo, 06.07. 2:00 9 2 24 180° S
So, 05.07. 20:00 11 2 36 240° SW
So, 05.07. 14:00 14 3 32 230° SW
So, 05.07. 8:00 9 2 22 190° S
Ortszeit Stärke Spitze Richtung
km/h Bft. km/h Grad Sektor
Di, 07.07. 5:00 4 1 7 160° S
Di, 07.07. 4:50 4 1 - 160° S
Di, 07.07. 4:40 4 1 - 140° SO
Di, 07.07. 4:30 2 1 6 150° SO
Di, 07.07. 4:20 2 1 - 150° SO
Di, 07.07. 4:10 4 1 - 100° O
Di, 07.07. 4:00 6 1 7 200° S
Di, 07.07. 3:30 6 1 7 210° SW
Di, 07.07. 3:00 4 1 7 220° SW
Di, 07.07. 2:30 4 1 7 270° W
Di, 07.07. 2:00 4 1 18 260° W
Ortszeit Untergrenze Bedeckung Gattung
total tief tief mittel hoch
Di, 07.07. 2:00 - 0/8 0/8 - - -
Mo, 06.07. 20:00 2400 m 4/8 4/8 - - -
Mo, 06.07. 14:00 1500 m 3/8 3/8 - - -
Mo, 06.07. 8:00 210 m 8/8 8/8 - - -
Mo, 06.07. 2:00 1500 m 8/8 8/8 - - -
So, 05.07. 20:00 1230 m 1/8 1/8 - - -
So, 05.07. 14:00 1170 m 8/8 8/8 - - -
So, 05.07. 8:00 1800 m 8/8 8/8 - - -
Ortszeit Bedeckungsgrad in Achtel und Wolkenuntergrenze
Di, 07.07. 5:00 7(1800m)
Di, 07.07. 4:50 7(1800m)
Di, 07.07. 4:40 8(1800m)
Di, 07.07. 4:30 8(1800m)
Di, 07.07. 4:20 8(1800m)
Di, 07.07. 4:10 7(1800m)
Di, 07.07. 4:00 2(1800m)
Di, 07.07. 3:30 keine Wolken
Di, 07.07. 3:00 keine Wolken
Di, 07.07. 2:30 keine Wolken
Di, 07.07. 2:00 keine Wolken
Ortszeit Luftdruck NN (hPa) Tendenz (hPa in 3 Std.)
Di, 07.07. 2:00 1022 + 0,9
Mo, 06.07. 20:00 1016 + 1,5
Mo, 06.07. 14:00 1013 + 0,7
Mo, 06.07. 8:00 1013 + 0,5
Mo, 06.07. 2:00 1013 - 0,8
So, 05.07. 20:00 1012 - 1,3
So, 05.07. 14:00 1015 - 1,0
So, 05.07. 8:00 1016 - 0,1
Ortszeit Luftdruck NN (hPa) Tendenz (hPa in 3 Std.)
Di, 07.07. 5:00 1022 + 0,5
Di, 07.07. 4:50 1022 keine Meldung
Di, 07.07. 4:40 1022 keine Meldung
Di, 07.07. 4:30 1022 + 0,5
Di, 07.07. 4:20 1022 keine Meldung
Di, 07.07. 4:10 1022 keine Meldung
Di, 07.07. 4:00 1022 + 0,6
Di, 07.07. 3:30 1022 + 0,5
Di, 07.07. 3:00 1022 + 0,5
Di, 07.07. 2:30 1022 + 1,0
Di, 07.07. 2:00 1022 + 0,9
Ortszeit Schneehöhe (cm)
Di, 07.07. 2:00 -
Mo, 06.07. 20:00 -
Mo, 06.07. 14:00 -
Mo, 06.07. 8:00 -
Mo, 06.07. 2:00 -
So, 05.07. 20:00 -
So, 05.07. 14:00 -
So, 05.07. 8:00 -
Ortszeit Schneehöhe (cm)
Di, 07.07. 5:00 -
Di, 07.07. 4:50 -
Di, 07.07. 4:40 -
Di, 07.07. 4:30 -
Di, 07.07. 4:20 -
Di, 07.07. 4:10 -
Di, 07.07. 4:00 -
Di, 07.07. 3:30 -
Di, 07.07. 3:00 -
Di, 07.07. 2:30 -
Di, 07.07. 2:00 -
Link zu dieser Seite / Seite empfehlen

Das Wetter in ...